Погода в Уодбридже

Великобритания     50°31′07″N   4°49′51″W
темп.,
°C
ветер,
м/с
пор.,
м/с
влажн.,
%
обл.,
%
осадки,
мм/ч
давл.,
гПа
погр.,
м
13 мая, чт
чт1301:00+6ссз3494100 0.3 100873
04:00+5ссз379391 0.0 1008124
07:00+7ссз499194 0.0 1007367
10:00+9ссз71083100 0.1 1007976
13:00+9ссз71090100 0.9 1008787
16:00+9ссз5994100 1.4 1008596
19:00+9ссз5992100 1.5 1009502
22:00+8сз61187100 0.0 1010398
14 мая, пт
пт1401:00+8ссз51088100 0.0 1010353
04:00+6ссз339446 0.0 101054
07:00+8сз24946 0.0 1011121
10:00+12зсз33685 0.0 1011768
13:00+13з436898 0.2 10101172
16:00+11з4579100 0.6 1009720
19:00+10юз3681100 0.8 1007601
22:00+7ююв3895100 0.3 1006406
15 мая, сб
сб1501:00+7ююв81397100 2.1 1002872
04:00+8юз5129677 0.4 1000614
07:00+9зюз7129453 0.8 1000759
10:00+11зюз811835 0.4 10011004
13:00+13зюз8106928 0.6 10011230
16:00+13зюз810675 0.1 10011171
19:00+11зюз7108127 0.1 1002994
22:00+7юз4119525 0.0 1002370
16 мая, вс
вс1601:00+7юз4119383 0.1 1001415
04:00+8юз61395100 0.6 999721
07:00+9юз71395100 1.5 998764
10:00+10юз8129482 0.9 9971053
13:00+12зюз10148897 2.5 9971346
16:00+11юз101594100 1.6 9961163
19:00+10зюз11179388 2.6 995980
22:00+9з9149659 0.8 998653
17 мая, пн
пн1701:00+10зсз7129691 1.5 1000597
04:00+9з7139685 0.5 1002651
07:00+9зсз6119229 1.4 1003458
10:00+11зсз7108623 0.9 1006937
13:00+12з8107545 1.3 10081173
16:00+12з911735 0.3 10091209
19:00+10з812845 0.4 10101015
22:00+8з7139010 0.3 1011714